FENGYUN 2H

Satellite information

Favourite Embed

Satellite Type and Status

PAYLOADIN ORBIT

Key statistics

Satellite FENGYUN 2H at a glance.

Uptime

2590

Days in orbit

Revolutions

≈ 1.0

Per day

Orbit

GEO

Geostationary Orbit

Inclination

2.1

Latest

Satellite identification and parameters

Extended collection of information and parameters for FENGYUN 2H.

Object identification

Identified? True

Debris? False

Object name: FENGYUN 2H

International designator: 2018-050A

Object number (NORAD): 43491

Object ID (CCSDS): 43491

Country: PEOPLES REPUBLIC OF CHINA (PRC)

Current information (Y/N): Y

RCS size: MEDIUM

Orbital parameters

Period: 1436.036 minutes

Inclination: 2.1422 deg

SMA: 42163.532 km

Apoapsis: 35792.48 km

Periapsis: 35778.313 km

RAAN: 83.2206 deg

Eccentricy: 0.000168

Argument of periapsis: 108.2783 deg

Mean anomaly: 107.1892 deg

Mean motion: 1.00276067 rev/day

Mean motion (dot): -0.00000113 rev/day2

B* drag term: 0.0 1/REarth

Two-line elements (TLE)

Creation date: July 8, 2025, 2:27 a.m.

Reference frame: TEME

Reference center: EARTH

Epoch: July 7, 2025, 7:34 p.m. UTC

TLE line 0: 0 FENGYUN 2H

TLE line 1: 1 43491U 18050A 25188.81566472 -.00000113 00000-0 00000-0 0 9994

TLE line 2: 2 43491 2.1422 83.2206 0001680 108.2783 107.1892 1.00276067 25980

Live tracking on map

Real-time ground track for satellite FENGYUN 2H.

In-orbit conjunctions

There are no conjunctions computed for FENGYUN 2H, at the moment. Check back to stay up to date, as we update our databases every day.

Go to all conjunctions

Associated space launch

Fengyun is China's meteorogical satellite program. It includes polar-orbiting and geostationary spacecrafts. Fengyun-2H is a geostationary satellite expected to operate in orbit for about 5 years.

FENGYUN 2H was lifted into orbit during the mission ‘Long March 3A | Fengyun-2H’, on board a Long March 3A space rocket.

The launch took place on June 5, 2018, 1:07 p.m. from Launch Complex 3 (LC-3/LA-1).

For more information about the launch, click the button.

Launch to space Long March 3A | Fengyun-2H
Long March 3A | Fengyun-2H

Agency: N/A

Status: Launch Successful

Launch date: June 5, 2018, 1:07 p.m. UTC

Rocket: Long March 3A

Launch pad: Launch Complex 3 (LC-3/LA-1)

Location: Xichang Satellite Launch Center, People's Republic of China

...

Latest news about this satellite

There are no fresh news available about this satellite. Check back as we update our databases every day.


Newsletter sign-up

Weekly statistics, charts and insights to help you stay on top of the space industry.